Date,TemperatureHighF,TemperatureAvgF,TemperatureLowF,DewpointHighF,DewpointAvgF,DewpointLowF,HumidityHigh,HumidityAvg,HumidityLow,PressureMaxIn,PressureMinIn,WindSpeedMaxMPH,WindSpeedAvgMPH,GustSpeedMaxMPH,PrecipitationSumIn
2014-1-1,36.9,33.9,31.5,34.2,31.5,28.9,93,91,87,28.33,28.22,7,1,8,0.00
2014-1-2,36.9,33.9,30.6,34.0,31.5,28.2,93,91,87,28.21,28.10,9,2,10,0.00
2014-1-3,46.0,38.1,34.0,41.2,35.2,31.3,94,89,81,28.29,28.20,15,5,16,0.00
2014-1-4,43.5,40.9,38.8,40.1,38.0,36.3,92,89,86,28.32,27.96,13,5,16,0.00
2014-1-5,43.0,40.2,35.6,41.4,38.7,34.0,96,94,92,28.31,27.91,13,5,16,0.00
2014-1-6,55.8,39.6,34.0,43.0,36.1,32.2,94,88,59,28.38,28.28,9,-7,9,0.00
2014-1-7,60.6,43.4,37.6,45.7,38.6,34.7,90,83,58,28.49,28.28,11,4,14,0.00
2014-1-8,66.4,45.3,39.4,49.3,40.5,36.5,91,83,54,28.53,28.40,15,6,23,0.00
2014-1-9,59.9,44.9,38.5,49.1,40.2,36.3,94,84,66,28.46,28.08,26,5,27,0.00
2014-1-10,54.9,42.9,38.8,42.6,35.2,32.4,84,74,49,28.41,28.14,22,12,26,0.00
2014-1-11,45.0,39.6,35.4,38.3,35.3,32.4,90,84,76,28.40,28.28,20,8,31,0.00
2014-1-12,55.0,37.9,32.9,34.0,30.2,27.9,83,74,43,28.53,28.38,21,9,29,0.00
2014-1-13,53.4,35.2,28.6,37.2,30.5,25.2,89,83,54,28.38,28.22,13,2,14,0.00
2014-1-14,36.5,35.1,34.0,33.8,33.2,31.8,94,93,89,28.22,28.02,7,2,7,0.00
2014-1-15,41.2,36.5,32.7,37.6,34.0,30.2,94,91,85,28.22,28.06,15,-111,16,0.00
2014-1-16,43.5,36.1,31.5,37.0,32.8,28.9,93,88,78,28.16,28.01,8,2,9,0.00
2014-1-17,39.9,37.0,34.9,37.6,35.2,32.7,95,93,91,28.11,28.01,9,2,9,0.00
2014-1-18,38.3,37.3,36.7,37.2,36.1,35.4,96,95,95,28.13,28.03,7,2,8,0.00
2014-1-19,45.5,41.1,38.5,44.4,40.0,37.4,97,96,95,28.03,27.92,5,1,5,0.00
2014-1-20,41.5,40.2,36.3,40.6,39.2,35.2,97,96,95,28.00,27.89,12,4,12,0.00
2014-1-21,36.3,33.3,31.8,35.2,31.6,29.5,96,93,91,28.17,28.00,9,1,10,0.00
2014-1-22,34.7,32.0,29.8,30.9,29.2,26.8,93,89,85,28.28,28.16,0,-343,0,0.00
2014-1-23,30.4,29.4,28.8,28.4,27.4,26.4,95,92,88,28.33,28.22,0,0,0,0.00
2014-1-24,31.5,30.0,27.3,29.1,28.1,24.4,94,92,89,28.31,28.16,0,-146,0,0.00
2014-1-25,27.1,21.8,15.4,24.3,17.6,10.4,89,84,77,28.32,28.15,0,-21,0,0.00
2014-1-26,22.5,18.3,14.2,20.3,14.5,10.2,91,85,80,28.14,27.91,0,-156,0,0.00
2014-1-27,31.8,27.4,22.5,29.5,25.4,20.3,94,92,89,27.93,27.74,0,0,0,0.00
2014-1-28,32.2,28.9,27.1,29.3,27.0,25.7,94,92,89,27.96,27.92,0,0,0,0.00
2014-1-29,30.4,27.9,25.0,27.1,25.3,22.5,94,90,85,28.07,27.91,0,0,0,0.00
2014-1-30,32.2,29.7,27.7,29.8,26.2,24.6,91,87,81,28.19,28.07,0,0,0,0.00
2014-1-31,41.9,34.1,29.7,36.5,31.3,27.9,94,89,80,28.22,28.08,7,2,9,0.00
2014-2-1,41.0,34.5,32.5,34.7,31.2,29.8,91,88,78,28.18,28.07,10,5,13,0.00
2014-2-2,34.0,33.0,32.4,31.5,30.5,29.5,93,90,88,28.39,28.12,7,3,9,0.00
2014-2-3,35.4,32.3,28.6,30.9,28.7,24.8,94,87,77,28.40,28.21,13,4,17,0.00
2014-2-4,37.9,30.9,25.0,31.1,26.8,21.9,90,85,75,28.30,28.17,10,3,10,0.00
2014-2-5,36.3,32.9,30.6,31.8,29.7,27.7,91,88,83,28.19,27.99,10,4,13,0.00
2014-2-6,49.3,37.9,32.7,39.7,33.9,30.7,93,86,69,28.22,28.04,12,4,15,0.00
2014-2-7,46.2,38.3,34.5,37.8,34.3,31.8,90,85,72,28.05,27.91,9,3,10,0.00
2014-2-8,51.4,42.7,35.8,39.2,36.0,32.2,87,78,59,28.09,27.81,12,5,14,0.00
2014-2-9,44.6,40.9,36.3,38.3,35.0,32.0,88,79,67,27.95,27.81,14,6,20,0.00
2014-2-10,44.1,38.0,32.4,36.0,32.6,29.1,89,81,65,28.00,27.80,10,5,14,0.00
2014-2-11,45.1,39.8,33.8,38.1,34.0,29.3,90,80,62,28.10,27.82,19,6,22,0.00
2014-2-12,46.2,36.0,30.9,36.5,30.6,27.1,86,81,68,28.20,28.02,16,6,16,0.00
2014-2-13,46.9,38.6,30.4,38.5,33.0,26.8,87,80,71,28.08,27.77,12,4,19,0.00
2014-2-14,47.7,40.9,35.8,37.9,32.5,28.9,87,73,55,28.25,27.83,21,9,28,0.00
2014-2-15,46.8,40.4,35.6,38.7,33.0,27.9,86,75,65,28.11,28.01,10,3,12,0.00
2014-2-16,46.2,43.5,40.8,38.8,37.7,36.7,86,80,72,28.27,28.10,23,9,23,0.00
2014-2-17,51.1,42.1,35.6,40.3,34.3,30.4,92,75,51,28.41,28.25,12,6,15,0.00
2014-2-18,45.9,37.9,31.8,37.2,32.7,27.7,88,81,71,28.43,28.26,9,2,9,0.00
2014-2-19,50.0,41.3,35.6,41.4,36.9,32.5,91,85,72,28.32,28.20,15,6,21,0.00
2014-2-20,49.8,43.7,37.6,41.4,37.8,32.7,90,80,65,28.35,28.19,16,6,19,0.00
2014-2-21,49.8,42.4,34.5,42.3,37.6,30.9,88,83,74,28.23,28.07,15,6,16,0.00
2014-2-22,50.7,43.3,37.8,39.4,34.4,29.5,88,72,51,28.43,28.22,14,6,14,0.00
2014-2-23,51.3,41.6,34.3,38.1,32.2,28.0,84,70,53,28.65,28.44,9,3,9,0.00
2014-2-24,52.2,40.8,30.4,36.1,30.9,25.0,80,69,50,28.54,28.39,10,3,11,0.00
2014-2-25,43.7,37.0,32.2,37.2,32.3,28.2,88,83,77,28.39,28.31,8,2,9,0.00
2014-2-26,44.6,38.3,31.8,37.6,34.4,28.4,93,86,75,28.43,28.30,7,1,7,0.00
2014-2-27,51.6,41.6,34.2,39.0,34.8,30.9,90,78,61,28.45,28.22,9,2,9,0.00
2014-2-28,48.6,40.2,34.3,37.9,34.0,30.0,90,79,64,28.21,27.97,16,3,16,0.00
2014-3-1,45.7,38.2,31.8,37.8,33.1,28.4,91,82,71,28.03,27.91,9,2,10,0.00
2014-3-2,54.0,41.2,32.5,42.1,35.3,29.1,89,80,63,28.11,27.91,5,1,9,0.00
2014-3-3,50.7,41.9,33.6,39.0,35.4,30.2,89,78,63,27.92,27.78,10,3,12,0.00
2014-3-4,50.5,44.0,40.1,41.4,39.1,36.7,88,83,67,28.12,27.84,8,3,11,0.00
2014-3-5,51.3,44.0,37.2,43.5,38.6,34.0,92,81,70,28.53,28.11,8,3,10,0.00
2014-3-6,49.5,44.0,39.9,41.0,37.5,34.9,87,78,67,28.73,28.53,11,5,13,0.00
2014-3-7,51.6,43.5,36.0,37.8,34.4,30.2,83,71,56,28.71,28.62,7,1,9,0.00
2014-3-8,56.3,45.2,34.9,41.0,36.0,30.0,83,71,54,28.92,28.64,9,2,12,0.00
2014-3-9,54.9,42.6,31.8,43.2,34.1,27.5,89,73,53,28.90,28.76,8,1,10,0.00
2014-3-10,57.4,45.0,33.6,36.9,31.1,26.2,81,60,38,28.74,28.60,9,2,12,0.00
2014-3-11,59.2,43.8,31.8,30.7,27.4,23.7,75,55,29,28.80,28.58,9,3,9,0.00
2014-3-12,57.4,46.9,36.3,37.8,30.0,26.4,71,53,32,28.91,28.77,13,2,13,0.00
2014-3-13,61.5,48.1,34.3,34.0,29.8,24.1,67,50,32,28.82,28.64,9,2,9,0.00
2014-3-14,62.8,50.1,37.0,39.6,34.3,27.7,73,56,41,28.70,28.41,12,3,13,0.00
2014-3-15,49.8,46.6,43.0,41.7,36.7,33.6,86,69,59,28.40,28.20,28,14,28,0.00
2014-3-16,54.5,49.0,43.9,46.6,42.6,35.1,82,78,70,28.34,28.10,31,19,39,0.00
2014-3-17,55.6,51.3,48.2,44.2,41.9,39.0,79,70,61,28.45,28.33,23,12,24,0.00
2014-3-18,59.2,51.5,45.7,46.6,42.8,38.5,88,73,58,28.44,28.25,15,7,19,0.00
2014-3-19,54.0,49.0,45.1,45.0,41.9,39.7,85,76,60,28.56,28.26,24,13,30,0.00
2014-3-20,67.5,55.7,45.0,43.7,39.4,36.1,80,57,33,28.64,28.36,18,8,21,0.00
2014-3-21,72.0,59.5,44.1,44.2,39.3,35.1,72,49,30,28.40,28.28,19,8,28,0.00
2014-3-22,68.9,57.6,50.4,49.5,44.0,41.4,84,62,38,28.28,28.07,16,6,20,0.00
2014-3-23,50.2,44.1,38.7,45.5,39.9,35.6,90,85,78,28.09,28.04,16,7,17,0.00
2014-3-24,43.9,40.1,36.9,39.4,36.5,33.8,91,87,79,28.19,28.05,15,7,17,0.00
2014-3-25,48.0,40.5,37.4,38.5,35.4,33.4,88,82,64,28.19,28.14,15,4,15,0.00
2014-3-26,50.7,42.2,33.3,40.5,34.4,29.5,91,75,54,28.40,28.19,15,4,17,0.00
2014-3-27,57.0,48.3,37.9,41.5,37.2,32.7,82,66,52,28.40,28.31,18,6,18,0.00
2014-3-28,54.3,46.4,40.5,43.2,38.7,34.9,82,75,61,28.56,28.35,9,2,11,0.00
2014-3-29,62.1,50.7,37.9,48.9,42.4,33.8,87,74,59,28.67,28.52,10,3,13,0.00
2014-3-30,64.2,53.0,41.2,46.6,41.8,37.2,86,67,49,28.52,28.39,6,2,8,0.00
2014-3-31,63.5,52.5,43.7,46.0,42.0,37.9,82,68,50,28.40,28.28,9,3,13,0.00
2014-4-1,64.2,53.7,43.3,48.7,43.3,38.3,85,69,52,28.42,28.29,6,2,8,0.00
2014-4-2,68.2,56.8,46.4,47.3,43.6,40.3,81,63,44,28.38,28.21,9,2,13,0.00
2014-4-3,70.2,58.5,45.7,51.6,46.0,39.2,80,64,45,28.27,28.12,9,3,17,0.00
2014-4-4,70.7,61.1,48.0,54.9,50.0,43.3,85,68,50,28.32,28.17,12,4,12,0.00
2014-4-5,62.1,55.7,50.0,51.6,48.2,44.1,82,76,66,28.42,28.26,5,1,6,0.00
2014-4-6,63.7,55.9,49.6,50.9,47.7,43.9,88,74,58,28.53,28.39,11,4,12,0.00
2014-4-7,71.1,58.6,47.5,51.1,46.8,41.9,84,66,47,28.60,28.41,10,3,11,0.00
2014-4-8,66.7,57.6,50.2,53.6,45.1,33.8,81,64,41,28.46,28.30,25,9,28,0.00
2014-4-9,53.6,48.5,42.6,38.5,34.2,30.2,72,58,42,28.55,28.45,25,11,25,0.00
2014-4-10,50.5,47.3,44.1,41.9,38.8,36.7,86,72,61,28.53,28.39,22,10,24,0.00
2014-4-11,59.5,51.1,42.8,40.6,37.6,36.1,80,62,43,28.58,28.46,9,2,9,0.00
2014-4-12,63.1,53.2,44.2,45.5,40.8,36.5,78,64,51,28.53,28.39,6,1,9,0.00
2014-4-13,61.5,54.2,49.1,47.8,42.5,38.5,88,66,46,28.49,28.34,15,6,18,0.00
2014-4-14,53.4,48.9,41.9,43.5,39.5,34.2,77,70,66,28.39,28.22,23,9,29,0.00
2014-4-15,48.6,42.8,38.5,36.3,34.0,31.1,81,71,59,28.54,28.29,24,11,30,0.00
2014-4-16,52.7,45.0,39.7,37.9,33.1,27.9,86,65,41,28.75,28.54,18,8,20,0.00
2014-4-17,57.6,46.9,32.5,33.4,29.4,25.5,77,53,35,28.71,28.36,8,2,11,0.00
2014-4-18,48.0,44.2,38.3,41.0,35.7,29.1,84,72,57,28.34,28.15,10,4,12,0.00
2014-4-19,67.8,52.5,37.6,51.4,42.9,34.2,91,72,43,28.37,28.28,23,7,26,0.00
2014-4-20,66.7,58.0,48.4,48.4,45.7,43.2,85,65,45,28.35,28.22,17,6,17,0.00
2014-4-21,63.5,54.7,45.1,52.2,46.7,39.6,85,75,61,28.24,28.14,13,4,14,0.00
2014-4-22,67.8,57.3,47.3,55.8,51.1,43.9,89,80,61,28.46,28.19,8,2,8,0.00
2014-4-23,71.4,61.4,51.4,56.7,50.8,47.3,90,70,46,28.65,28.44,9,3,11,0.00
2014-4-24,72.9,61.5,49.8,56.1,51.0,45.1,86,69,51,28.62,28.49,13,3,15,0.00
2014-4-25,72.1,61.3,51.8,55.8,52.0,47.7,86,73,54,28.49,28.37,11,3,14,0.00
2014-4-26,73.8,61.6,49.1,57.6,52.3,44.8,92,73,50,28.44,28.27,9,2,12,0.00
2014-4-27,70.2,61.9,53.6,55.8,53.0,49.3,89,73,59,28.27,28.18,10,4,11,0.00
2014-4-28,72.5,60.5,54.9,56.8,53.3,50.4,88,78,55,28.36,28.19,11,3,14,0.00
2014-4-29,64.2,58.6,54.3,54.0,52.1,49.8,87,79,65,28.38,28.27,8,2,9,0.00
2014-4-30,72.0,61.1,50.2,55.0,47.6,44.4,87,64,40,28.38,28.22,8,2,12,0.00
2014-5-1,75.4,61.5,50.2,54.3,49.0,43.5,84,66,41,28.41,28.24,15,4,17,0.00
2014-5-2,68.5,54.2,42.3,56.1,47.9,38.7,87,80,63,28.41,28.24,20,6,26,0.00
2014-5-3,47.3,43.5,41.0,40.3,39.0,37.2,90,84,75,28.53,28.37,19,10,19,0.00
2014-5-4,55.8,47.2,36.3,41.0,36.5,32.0,85,67,52,28.57,28.47,18,6,21,0.00
2014-5-5,60.3,49.8,37.0,41.7,37.6,32.0,82,64,49,28.59,28.46,7,2,11,0.00
2014-5-6,70.0,57.9,41.7,49.8,44.1,36.3,82,62,42,28.51,28.35,16,3,16,0.00
2014-5-7,59.5,56.8,51.4,54.7,51.0,47.7,89,81,65,28.38,28.28,22,7,22,0.00
2014-5-8,66.7,56.9,47.1,51.6,47.8,43.7,88,73,50,28.48,28.35,21,8,26,0.00
2014-5-9,69.3,61.3,53.4,55.2,50.8,46.2,90,70,47,28.45,28.30,21,9,22,0.00
2014-5-10,69.8,60.1,48.7,52.3,47.0,43.2,83,64,41,28.48,28.24,23,7,23,0.00
2014-5-11,64.4,57.2,50.7,50.4,46.8,40.5,85,69,47,28.24,28.16,26,9,26,0.00
2014-5-12,64.6,54.7,46.6,44.4,42.0,40.3,82,63,42,28.35,28.19,23,10,28,0.00
2014-5-13,64.0,52.9,47.8,48.4,44.4,41.2,82,73,52,28.48,28.28,14,6,20,0.00
2014-5-14,55.6,50.5,45.5,43.9,40.3,36.5,81,69,50,28.68,28.45,19,9,25,0.00
2014-5-15,57.2,50.4,43.7,45.5,42.4,38.7,84,74,61,28.75,28.65,28,-364,28,0.00
2014-5-16,56.5,51.1,46.9,47.1,42.2,38.3,90,72,54,28.70,28.56,25,13,30,0.00
2014-5-17,53.1,50.6,48.6,49.5,47.1,44.6,91,88,83,28.56,28.34,15,-12,17,0.00
2014-5-18,53.8,50.7,49.5,50.5,47.4,46.0,92,88,84,28.34,28.31,16,-42,18,0.00
2014-5-19,73.2,60.6,49.5,58.8,52.8,47.5,93,77,52,28.48,28.28,12,3,18,0.00
2014-5-20,76.8,66.0,51.4,61.5,55.2,48.0,89,70,52,28.59,28.37,9,2,9,0.00
2014-5-21,80.6,69.0,54.3,61.0,54.5,48.6,81,62,40,28.62,28.45,10,3,13,0.00
2014-5-22,83.8,72.5,57.7,62.1,58.2,51.6,81,62,45,28.53,28.34,9,3,12,0.00
2014-5-23,84.7,70.5,61.3,67.5,61.0,54.9,88,73,53,28.45,28.26,13,3,13,0.00
2014-5-24,73.0,64.2,57.6,63.0,58.4,53.6,90,82,61,28.56,28.37,19,4,24,0.00
2014-5-25,77.0,66.7,53.6,58.8,53.6,48.0,89,65,40,28.74,28.53,9,3,10,0.00
2014-5-26,77.4,69.1,57.2,59.9,55.8,52.2,84,64,46,28.61,28.40,13,5,16,0.00
2014-5-27,75.7,66.0,61.0,62.4,59.7,56.7,87,81,61,28.40,28.25,9,3,14,0.00
2014-5-28,63.5,60.1,55.8,60.1,56.2,52.9,91,87,83,28.32,28.19,15,4,18,0.00
2014-5-29,55.8,50.9,47.1,52.9,47.3,43.5,90,87,81,28.45,28.30,17,8,17,0.00
2014-5-30,63.9,53.5,46.0,49.3,45.4,43.2,90,75,53,28.63,28.44,12,6,13,0.00
2014-5-31,70.9,61.1,48.6,49.3,46.5,43.7,83,61,40,28.64,28.52,15,6,15,0.00
2014-6-1,69.6,61.1,49.3,51.1,45.0,40.3,77,57,39,28.64,28.49,14,6,16,0.00
2014-6-2,70.7,62.0,50.2,48.4,46.1,42.3,75,57,42,28.60,28.50,16,5,16,0.00
2014-6-3,73.2,61.8,52.2,53.8,48.4,45.1,77,63,44,28.53,28.42,10,3,20,0.00
2014-6-4,77.4,65.4,53.2,55.6,51.4,47.3,84,63,39,28.45,28.32,12,2,12,0.00
2014-6-5,75.0,65.6,57.0,54.7,50.2,44.2,85,60,35,28.58,28.30,20,7,20,0.00
2014-6-6,79.0,67.4,50.9,53.2,48.8,43.9,78,54,32,28.72,28.52,10,3,10,0.00
2014-6-7,83.8,72.0,55.9,59.2,53.5,47.5,73,54,35,28.61,27.36,8,2,10,0.00
2014-6-8,90.1,78.4,60.1,64.6,58.5,52.5,76,53,33,27.75,27.75,7,2,10,0.00
2014-6-9,92.7,80.4,63.7,64.6,59.4,54.5,73,51,29,27.75,27.75,13,3,13,0.00
2014-6-10,93.7,81.0,64.6,67.8,61.2,53.2,71,53,27,27.75,27.75,12,3,15,0.00
2014-6-11,93.2,79.0,69.4,71.1,66.3,61.9,80,67,45,27.75,27.75,14,4,17,0.00
2014-6-12,78.3,71.8,63.5,63.1,58.0,48.4,84,63,46,27.75,27.75,18,6,19,0.00
2014-6-13,73.9,66.5,57.4,54.1,50.1,47.3,73,57,39,27.75,27.75,16,7,21,0.00
2014-6-14,67.5,62.0,57.0,51.3,48.9,46.9,77,63,51,27.75,27.75,14,7,20,0.00
2014-6-15,74.5,63.4,54.7,52.0,48.2,44.6,83,60,39,27.75,27.75,16,6,16,0.00
2014-6-16,75.4,64.7,50.2,52.2,46.7,42.8,77,54,36,27.75,27.75,9,3,9,0.00
2014-6-17,73.6,65.0,56.7,54.7,51.2,49.1,81,62,47,27.75,27.75,13,5,15,0.00
2014-6-18,80.4,69.4,53.6,54.7,50.2,45.5,76,52,35,27.75,27.75,9,3,12,0.00
2014-6-19,77.9,67.4,58.6,56.8,51.3,46.6,80,57,43,27.75,27.75,18,6,25,0.00
2014-6-20,66.7,59.6,54.3,53.4,48.8,45.7,82,68,51,27.75,27.75,16,8,24,0.00
2014-6-21,65.7,59.9,54.9,48.7,47.0,44.8,78,63,49,27.75,27.75,15,6,18,0.00
2014-6-22,68.2,61.2,54.0,51.8,48.6,45.9,78,64,49,27.75,27.75,14,6,16,0.00
2014-6-23,73.2,63.9,52.7,51.1,47.6,45.3,77,57,41,27.75,27.75,9,5,13,0.00
2014-6-24,74.5,65.7,54.9,53.1,48.3,45.0,77,55,40,27.75,27.75,11,3,14,0.00
2014-6-25,65.3,59.1,53.4,55.8,52.5,48.6,87,79,67,27.75,27.75,21,5,23,0.00
2014-6-26,70.7,62.2,52.0,52.2,49.2,47.3,85,64,47,27.75,27.75,12,4,13,0.00
2014-6-27,77.5,66.3,50.2,54.9,50.3,44.4,81,59,38,27.75,27.75,12,2,12,0.00
2014-6-28,82.8,69.4,57.7,60.8,54.5,50.0,81,61,37,27.75,27.75,13,4,18,0.00
2014-6-29,67.8,63.6,60.4,61.0,58.4,56.7,88,83,75,27.75,27.75,18,-160,18,0.00
2014-6-30,69.3,61.7,56.7,57.7,54.5,51.6,88,78,57,27.75,27.75,15,-36,18,0.00
2014-7-1,71.4,63.0,52.7,54.1,50.9,48.4,86,66,50,27.75,27.75,15,4,15,0.00
2014-7-2,75.2,65.9,56.1,59.7,53.1,49.8,81,65,44,27.75,27.75,9,2,11,0.00
2014-7-3,79.7,69.9,54.1,57.7,51.0,45.1,83,54,30,27.75,27.75,10,4,16,0.00
2014-7-4,86.0,75.1,57.9,57.0,51.7,47.8,73,47,27,27.75,27.75,11,5,13,0.00
2014-7-5,84.2,73.0,65.5,63.7,60.0,55.2,80,65,45,27.75,27.75,18,-361,18,0.00
2014-7-6,88.7,78.1,65.3,64.0,61.0,59.4,81,58,38,27.75,27.75,12,5,18,0.00
2014-7-7,90.9,78.1,66.6,66.9,62.8,58.5,80,61,40,27.75,27.75,17,5,19,0.00
2014-7-8,85.3,74.6,66.4,69.4,65.4,62.4,88,74,54,27.75,27.75,13,4,15,0.00
2014-7-9,68.9,64.0,58.6,62.8,56.5,52.9,88,77,64,28.31,27.75,17,9,18,0.00
2014-7-10,64.9,59.6,55.9,57.2,54.5,52.2,88,83,75,28.37,28.22,12,5,14,0.00
2014-7-11,76.5,63.8,57.0,63.9,57.8,53.1,89,81,60,28.45,28.31,13,5,17,0.00
2014-7-12,75.0,66.7,57.4,60.3,52.7,46.6,89,63,37,28.45,28.30,14,6,20,0.00
2014-7-13,79.7,66.9,56.3,60.8,55.0,49.5,85,68,40,28.46,28.32,20,6,20,0.00
2014-7-14,79.0,70.1,60.6,63.1,59.0,55.4,86,69,50,28.58,28.35,17,6,21,0.00
2014-7-15,83.7,74.1,62.6,63.3,59.7,57.4,84,63,41,28.77,28.56,11,3,13,0.00
2014-7-16,86.2,75.2,63.7,63.7,60.1,57.0,80,61,43,28.80,28.65,8,3,12,0.00
2014-7-17,86.2,74.6,67.5,63.9,61.8,59.5,81,66,43,28.82,28.67,8,3,15,0.00
2014-7-18,88.7,77.8,63.5,65.1,59.6,56.3,82,56,36,28.80,28.64,9,2,12,0.00
2014-7-19,91.0,80.0,64.9,65.1,60.7,57.6,77,54,35,28.73,28.57,10,2,12,0.00
2014-7-20,93.6,81.9,67.6,75.2,62.2,58.3,84,53,33,28.58,28.41,7,2,8,0.00
2014-7-21,88.2,76.6,68.2,69.3,65.5,62.8,87,70,53,28.48,28.32,21,4,22,0.00
2014-7-22,84.2,75.8,68.2,68.2,61.5,53.4,89,65,38,28.59,28.39,21,6,32,0.00
2014-7-23,84.7,75.0,65.5,60.4,56.3,51.6,71,54,34,28.63,28.53,17,6,19,0.00
2014-7-24,77.2,69.3,61.7,60.3,57.2,53.1,81,66,54,28.54,28.45,19,6,20,0.00
2014-7-25,84.2,72.7,59.0,61.2,57.8,54.5,85,62,39,28.62,28.42,11,3,11,0.00
2014-7-26,86.4,76.2,64.0,63.7,59.9,57.0,79,59,40,28.61,28.46,10,3,13,0.00
2014-7-27,88.3,76.0,65.8,67.5,62.9,59.7,83,66,41,28.64,28.47,14,3,28,0.00
2014-7-28,85.1,72.3,65.7,68.7,64.4,61.0,86,77,57,28.55,28.40,17,2,19,0.00
2014-7-29,80.2,72.0,65.7,68.4,64.8,61.2,89,79,63,28.42,28.33,9,2,9,0.00
2014-7-30,79.0,71.4,65.5,70.0,65.4,61.2,89,82,66,28.41,28.26,10,2,14,0.00
2014-7-31,75.4,69.7,65.3,64.0,60.0,57.2,88,72,55,28.57,28.40,18,7,19,0.00
2014-8-1,81.3,71.9,60.3,63.7,59.8,54.3,81,67,48,28.58,28.45,13,4,16,0.00
2014-8-2,85.5,75.9,67.8,68.9,64.9,62.8,85,70,52,28.50,28.38,12,3,13,0.00
2014-8-3,88.3,76.9,66.2,67.8,64.0,61.2,85,66,43,28.56,28.37,19,4,19,0.00
2014-8-4,76.5,69.1,64.6,65.8,63.1,60.6,87,81,63,28.60,28.45,11,2,14,0.00
2014-8-5,74.7,68.1,60.8,64.4,60.7,57.2,89,78,62,28.63,28.49,11,3,17,0.00
2014-8-6,78.6,69.2,61.5,61.7,59.1,57.0,86,72,52,28.67,28.55,9,3,10,0.00
2014-8-7,81.7,71.2,61.7,63.9,60.0,56.5,84,69,51,28.61,28.48,8,2,11,0.00
2014-8-8,84.0,74.4,64.2,64.2,59.7,55.2,85,62,42,28.65,28.48,7,2,12,0.00
2014-8-9,85.8,74.9,62.2,64.6,60.3,55.8,80,62,44,28.58,28.36,22,5,27,0.00
2014-8-10,88.3,76.9,63.7,65.5,61.9,57.0,79,61,41,28.56,28.39,22,4,22,0.00
2014-8-11,74.8,68.9,62.1,65.7,62.4,54.5,88,80,67,28.50,28.35,15,6,20,0.00
2014-8-12,74.5,65.6,61.0,57.7,55.3,52.7,85,71,49,28.56,28.43,17,7,19,0.00
2014-8-13,70.0,64.1,57.4,60.3,56.6,52.0,87,77,67,28.43,28.21,15,4,17,0.00
2014-8-14,72.5,63.8,57.4,58.1,54.5,52.3,87,73,52,28.45,28.22,20,7,27,0.00
2014-8-15,72.1,62.4,54.1,56.1,52.9,49.1,85,72,49,28.48,28.36,17,6,18,0.00
2014-8-16,67.6,61.0,56.5,55.4,52.5,50.5,85,74,56,28.55,28.40,16,7,19,0.00
2014-8-17,71.1,62.1,54.9,56.8,53.0,49.8,89,73,56,28.53,28.36,16,8,18,0.00
2014-8-18,72.1,64.3,57.2,55.0,51.9,49.3,79,65,48,28.37,28.30,21,9,23,0.00
2014-8-19,72.9,63.2,53.4,53.4,50.5,48.2,84,65,44,28.45,28.32,14,6,17,0.00
2014-8-20,71.1,62.7,52.3,51.3,46.1,42.8,79,57,36,28.56,28.40,11,4,13,0.00
2014-8-21,72.7,62.3,55.4,52.7,48.1,45.0,76,61,40,28.58,28.44,11,4,19,0.00
2014-8-22,74.1,63.2,52.0,53.6,49.2,45.0,79,62,41,28.54,28.43,10,4,13,0.00
2014-8-23,73.4,63.2,53.2,51.1,48.8,45.7,77,61,44,28.50,28.38,17,7,21,0.00
2014-8-24,66.6,59.2,53.1,51.1,46.4,41.0,81,64,42,28.56,28.39,19,7,23,0.00
2014-8-25,71.1,60.3,48.0,49.1,44.7,41.7,84,59,35,28.58,28.38,16,7,19,0.00
2014-8-26,60.3,58.0,55.6,55.9,52.4,45.1,89,82,60,28.37,28.18,8,2,8,0.00
2014-8-27,68.0,59.9,54.1,54.3,50.8,46.8,91,73,50,28.55,28.24,13,6,16,0.00
2014-8-28,73.8,62.7,51.1,55.0,48.4,45.7,83,62,39,28.69,28.49,13,4,13,0.00
2014-8-29,73.9,62.9,54.3,62.2,55.2,48.2,89,77,55,28.59,28.48,12,4,21,0.00
2014-8-30,76.5,66.0,57.9,63.1,58.5,52.9,92,78,58,28.63,28.49,16,3,21,0.00
2014-8-31,66.4,60.8,57.9,59.7,55.4,52.3,90,83,73,28.52,28.39,10,4,10,0.00
2014-9-1,62.4,58.6,55.8,55.9,54.1,52.0,90,85,76,28.53,28.38,13,5,15,0.00
2014-9-2,61.9,58.1,55.8,56.3,54.5,52.9,91,88,82,28.60,28.49,18,6,18,0.00
2014-9-3,68.4,59.9,54.7,60.3,55.1,52.3,92,84,72,28.66,28.58,10,5,12,0.00
2014-9-4,74.8,65.9,56.5,62.4,58.7,53.6,91,78,64,28.68,28.57,8,3,11,0.00
2014-9-5,80.1,68.9,59.4,65.7,60.5,55.8,90,76,56,28.60,28.48,9,2,9,0.00
2014-9-6,82.6,71.7,61.7,66.7,60.6,57.2,86,70,46,28.56,28.41,7,2,11,0.00
2014-9-7,81.0,69.5,59.5,63.9,59.2,54.5,87,71,49,28.57,28.41,13,2,13,0.00
2014-9-8,80.6,69.1,61.7,65.8,60.7,57.4,87,76,57,28.62,28.46,14,2,14,0.00
2014-9-9,73.0,65.7,59.2,60.6,57.5,52.3,89,76,59,28.61,28.49,12,3,12,0.00
2014-9-10,68.2,61.2,54.5,55.0,52.1,48.7,84,73,62,28.54,28.46,11,3,12,0.00
2014-9-11,68.5,60.1,56.7,55.0,52.6,50.4,92,77,62,28.50,28.41,12,4,14,0.00
2014-9-12,65.3,60.4,56.7,63.0,58.1,54.3,95,92,87,28.51,28.30,13,5,17,0.00
2014-9-13,70.0,63.1,57.0,62.2,59.0,54.5,93,87,75,28.59,28.48,10,3,12,0.00
2014-9-14,64.9,62.1,59.9,62.2,59.8,57.0,94,92,90,28.56,28.49,9,4,12,0.00
2014-9-15,74.7,66.2,60.8,63.9,60.7,58.1,94,83,63,28.64,28.53,6,1,6,0.00
2014-9-16,75.4,65.4,57.7,62.4,58.1,54.7,92,78,56,28.65,28.52,9,2,12,0.00
2014-9-17,74.8,64.6,56.3,60.1,55.5,53.2,90,74,50,28.58,28.48,16,3,17,0.00
2014-9-18,73.8,64.1,54.9,57.6,54.4,50.2,85,72,54,28.56,28.42,9,2,9,0.00
2014-9-19,74.3,64.9,56.3,61.3,56.8,51.4,88,76,60,28.56,28.41,7,1,13,0.00
2014-9-20,78.1,66.3,60.3,65.1,60.8,57.0,91,83,61,28.54,28.43,11,2,12,0.00
2014-9-21,71.1,63.6,57.0,61.9,58.3,53.6,91,83,70,28.44,28.35,12,6,15,0.00
2014-9-22,62.2,54.9,49.8,53.1,47.3,41.2,88,76,56,28.38,28.32,19,10,22,0.00
2014-9-23,56.3,51.3,45.1,45.5,43.8,40.6,85,76,60,28.55,28.35,20,8,24,0.00
2014-9-24,62.2,52.4,42.1,49.1,44.3,37.9,87,75,56,28.49,28.30,10,2,11,0.00
2014-9-25,63.3,55.0,50.4,51.8,48.5,46.4,88,79,63,28.55,28.29,14,8,21,0.00
2014-9-26,58.5,56.0,53.1,54.1,51.6,49.1,89,85,77,28.65,28.54,12,6,16,0.00
2014-9-27,67.8,60.1,52.3,55.2,52.2,47.3,89,76,54,28.83,28.65,12,4,13,0.00
2014-9-28,68.9,57.6,46.9,55.9,49.9,43.2,87,76,58,28.85,28.71,6,1,8,0.00
2014-9-29,73.0,60.6,49.1,59.5,53.5,45.3,89,78,61,28.83,28.66,10,2,10,0.00
2014-9-30,67.8,60.7,54.9,61.0,56.3,51.4,91,85,76,28.77,28.66,4,1,6,0.00
2014-10-1,67.3,61.7,56.5,60.4,57.7,52.7,93,87,74,28.79,28.72,7,2,9,0.00
2014-10-2,67.8,60.1,53.8,59.0,53.9,50.4,91,81,63,28.87,28.75,9,2,9,0.00
2014-10-3,65.8,57.2,51.3,54.9,51.4,48.0,90,81,65,28.81,28.68,7,1,9,0.00
2014-10-4,58.8,54.0,47.1,51.1,48.4,43.5,89,81,71,28.68,28.53,5,0,8,0.00
2014-10-5,58.8,54.7,50.9,52.9,50.1,47.1,90,85,76,28.53,28.46,8,2,10,0.00
2014-10-6,61.7,55.4,48.7,52.2,49.4,45.9,90,81,66,28.48,28.35,11,4,12,0.00
2014-10-7,62.8,53.9,46.4,53.2,48.7,42.8,91,83,71,28.38,28.28,10,3,13,0.00
2014-10-8,66.2,57.9,53.6,58.3,53.4,49.8,92,85,75,28.44,28.32,11,4,11,0.00
2014-10-9,72.7,60.2,50.2,60.8,55.0,46.9,94,84,65,28.46,28.28,6,2,9,0.00
2014-10-10,64.2,57.8,54.1,58.6,54.7,50.7,93,89,81,28.56,28.37,6,1,7,0.00
2014-10-11,63.9,59.6,56.8,58.3,56.6,54.5,93,90,82,28.48,28.38,7,2,11,0.00
2014-10-12,69.8,60.3,53.6,59.0,55.4,51.4,93,84,63,28.54,28.37,8,2,12,0.00
2014-10-13,66.9,59.3,54.3,59.7,55.6,50.9,92,87,77,28.37,28.25,7,1,7,0.00
2014-10-14,66.7,59.8,53.8,57.7,55.6,50.2,94,86,71,28.36,28.21,9,4,14,0.00
2014-10-15,62.6,54.9,50.7,56.5,51.5,47.5,92,88,76,28.27,28.21,9,3,12,0.00
2014-10-16,66.4,57.7,52.3,57.6,53.7,49.8,94,87,71,28.28,28.19,14,3,15,0.00
2014-10-17,61.3,56.7,54.9,57.2,53.8,52.0,93,90,85,28.54,28.22,12,3,12,0.00
2014-10-18,66.2,55.6,49.5,58.3,51.9,47.5,93,88,75,28.75,28.54,10,3,10,0.00
2014-10-19,68.5,56.3,46.6,58.8,51.9,43.3,93,86,70,28.65,28.49,10,2,13,0.00
2014-10-20,65.5,59.9,54.5,57.9,55.0,50.4,91,84,71,28.50,28.38,20,8,23,0.00
2014-10-21,63.1,55.2,49.6,51.6,49.0,45.7,90,80,60,28.39,27.99,24,6,24,0.00
2014-10-22,52.0,46.9,44.8,47.3,41.9,39.7,91,83,74,28.18,28.03,28,12,32,0.00
2014-10-23,52.7,49.9,45.1,49.1,46.7,43.0,94,89,82,28.58,28.17,25,8,25,0.00
2014-10-24,49.6,46.9,44.1,44.2,43.1,41.0,90,87,79,28.63,28.56,5,1,7,0.00
2014-10-25,47.1,45.2,43.3,42.3,41.3,39.6,92,86,81,28.62,28.51,8,1,8,0.00
2014-10-26,56.8,48.8,44.6,48.4,44.3,41.5,90,85,73,28.78,28.61,6,2,8,0.00
2014-10-27,49.3,44.7,39.0,43.5,39.7,35.8,89,83,72,28.77,28.66,8,2,8,0.00
2014-10-28,47.7,40.5,36.0,41.2,36.3,32.0,90,85,77,28.67,28.43,7,2,8,0.00
2014-10-29,44.4,39.9,32.7,40.3,36.6,29.3,92,88,85,28.49,28.35,7,2,7,0.00
2014-10-30,48.7,45.3,42.1,43.0,41.2,39.6,92,86,75,28.69,28.49,7,1,7,0.00
2014-10-31,56.7,49.8,46.2,51.8,46.5,42.4,94,89,82,28.73,28.65,7,2,8,0.00
2014-11-1,62.4,51.2,45.9,53.8,47.9,42.8,94,89,72,28.66,28.55,7,1,7,0.00
2014-11-2,51.1,46.4,42.6,48.2,44.1,40.1,94,91,88,28.56,28.39,3,0,4,0.00
2014-11-3,50.7,46.4,43.9,46.8,43.8,41.0,95,91,85,28.40,28.12,11,3,12,0.00
2014-11-4,58.5,48.6,44.2,48.6,44.1,41.4,92,84,67,28.11,27.87,9,3,12,0.00
2014-11-5,54.5,48.2,42.6,50.4,45.4,39.6,92,90,85,28.08,27.85,6,1,6,0.00
2014-11-6,49.5,48.4,47.5,46.9,46.3,45.5,94,92,89,28.33,28.09,10,2,10,0.00
2014-11-7,50.9,48.3,46.6,46.9,45.5,42.3,94,90,84,28.31,28.21,9,2,15,0.00
2014-11-8,58.8,47.5,41.4,47.5,42.6,37.6,90,83,65,28.46,28.30,14,3,14,0.00
2014-11-9,46.8,44.1,39.9,44.8,42.1,37.2,94,93,88,28.32,28.25,4,1,5,0.00
2014-11-10,52.2,48.7,46.4,48.2,46.2,44.4,94,91,86,28.36,28.26,5,1,7,0.00
2014-11-11,54.1,50.6,47.5,51.3,48.1,45.3,94,91,89,28.36,28.18,8,2,9,0.00
2014-11-12,55.0,50.1,45.9,50.9,47.8,43.9,95,92,86,28.18,28.10,7,1,8,0.00
2014-11-13,54.1,52.3,50.9,50.4,49.2,48.0,92,89,86,28.40,28.18,5,1,5,0.00
2014-11-14,57.0,52.1,47.7,50.2,48.2,45.0,91,87,77,28.39,28.27,10,3,10,0.00
2014-11-15,55.4,52.9,51.6,48.9,48.1,47.3,89,84,78,28.27,28.04,12,5,12,0.00
2014-11-16,56.3,49.0,41.7,49.5,43.3,37.6,91,81,70,28.12,27.96,18,6,19,0.00
2014-11-17,47.8,43.2,38.7,46.0,40.7,35.1,94,91,86,28.17,28.12,7,2,7,0.00
2014-11-18,46.2,46.0,45.5,44.8,44.6,43.9,95,95,94,28.15,28.09,5,3,10,0.00
2014-11-19,45.3,41.9,41.2,43.7,39.9,38.8,94,92,91,28.59,28.14,14,5,16,0.00
2014-11-20,44.4,42.3,41.2,41.2,39.7,39.0,92,91,88,28.64,28.58,5,1,6,0.00
2014-11-21,42.3,41.3,40.5,38.7,37.3,35.4,91,86,81,28.64,28.57,7,3,8,0.00
2014-11-22,42.3,39.9,35.1,36.5,35.1,32.2,89,83,78,28.59,28.54,7,2,7,0.00
2014-11-23,41.4,37.9,34.3,38.7,35.8,31.6,93,92,89,28.64,28.56,7,3,11,0.00
2014-11-24,43.3,42.3,41.0,40.5,39.7,38.1,93,90,87,28.66,28.53,4,1,5,0.00
2014-11-25,41.9,39.9,37.0,40.1,37.4,34.7,94,90,86,28.66,28.59,7,2,7,0.00
2014-11-26,38.8,36.5,34.0,36.7,32.6,30.9,92,86,80,28.59,28.38,10,4,12,0.00
2014-11-27,37.9,36.5,34.9,33.3,32.3,31.1,90,84,79,28.37,28.26,13,6,13,0.00
2014-11-28,36.3,35.5,34.5,32.7,32.3,31.8,92,88,86,28.37,28.27,11,6,14,0.00
2014-11-29,36.3,35.9,35.6,34.0,32.9,32.0,91,88,86,28.41,28.36,8,5,13,0.00
2014-11-30,37.9,35.6,33.8,35.1,33.1,31.3,92,91,89,28.38,28.25,10,5,13,0.00
2014-12-1,34.9,32.5,31.6,32.0,29.3,27.9,93,88,85,28.25,28.17,17,9,17,0.00
2014-12-2,32.5,31.5,31.1,30.9,29.5,29.1,94,92,91,28.28,28.16,0,0,0,0.00
2014-12-3,36.9,34.5,32.2,35.8,33.3,30.6,96,95,94,28.40,28.28,7,2,9,0.00
2014-12-4,44.1,41.3,37.2,41.0,38.9,36.1,96,91,87,28.39,28.33,14,3,14,0.00
2014-12-5,41.9,40.7,39.9,39.7,38.7,37.9,95,92,91,28.41,28.35,6,1,7,0.00
2014-12-6,40.6,39.7,39.0,39.4,38.1,37.4,95,94,93,28.49,28.40,10,4,11,0.00
2014-12-7,41.2,39.1,37.2,37.8,36.4,34.0,94,90,85,28.50,28.33,14,3,14,0.00
2014-12-8,44.4,37.0,32.2,36.9,32.5,28.2,92,84,67,28.42,28.30,18,7,22,0.00
2014-12-9,53.4,32.1,27.5,40.3,28.5,24.1,92,87,60,28.67,28.38,8,2,9,0.00
2014-12-10,35.4,32.1,29.3,32.2,28.7,26.4,92,87,81,28.64,28.31,15,8,22,0.00
2014-12-11,42.3,38.4,34.5,37.2,35.2,31.8,93,88,80,28.31,28.15,25,12,29,0.00
2014-12-12,46.2,42.4,36.7,39.0,36.8,34.5,92,81,70,28.20,28.02,26,14,34,0.00
2014-12-13,55.2,47.8,44.8,42.1,39.5,37.9,78,73,61,28.30,28.05,20,11,28,0.00
2014-12-14,49.1,46.1,43.5,45.5,42.4,37.9,92,87,76,28.40,28.29,14,6,15,0.00
2014-12-15,57.0,46.4,40.8,48.0,42.2,36.7,91,85,72,28.39,28.32,17,7,17,0.00
2014-12-16,44.4,41.1,38.3,41.0,37.8,35.1,92,88,85,28.32,28.19,11,3,12,0.00
2014-12-17,40.1,38.5,35.4,37.4,34.8,31.6,92,86,79,28.23,28.06,25,8,25,0.00
2014-12-18,50.7,45.7,39.6,48.6,43.1,36.9,92,91,86,28.30,28.13,20,12,24,0.00
2014-12-19,52.3,50.5,45.5,49.5,46.0,42.1,93,85,79,28.33,28.25,39,14,39,0.00
2014-12-20,45.9,40.6,37.6,43.2,34.7,32.9,90,79,73,28.40,28.27,33,12,36,0.00
2014-12-21,45.9,40.1,36.7,36.1,33.8,31.3,85,78,66,28.62,28.38,22,12,23,0.00
2014-12-22,46.2,44.0,41.4,41.4,39.0,36.0,86,83,80,28.50,28.34,34,17,36,0.00
2014-12-23,51.6,47.6,45.7,43.0,41.8,40.8,86,80,71,28.43,28.37,32,14,34,0.00
2014-12-24,52.7,43.8,39.2,41.7,37.6,32.9,85,79,60,28.42,28.32,32,12,32,0.00
2014-12-25,48.7,40.4,36.3,41.0,34.5,31.8,88,80,57,28.43,28.32,26,10,28,0.00
2014-12-26,36.5,33.0,26.2,31.8,26.9,20.7,85,78,69,28.53,28.38,21,8,25,0.00
2014-12-27,28.9,26.2,23.5,22.8,20.7,18.5,86,79,72,28.39,27.88,15,6,16,0.00
2014-12-28,31.1,23.7,19.8,20.5,16.9,11.8,85,75,54,28.46,27.91,18,9,20,0.00
2014-12-29,29.3,24.1,19.9,25.7,19.9,14.7,88,84,80,28.59,28.32,15,7,23,0.00
2014-12-30,28.2,23.2,17.4,24.4,19.2,12.9,91,84,77,28.61,28.57,10,3,11,0.00
2014-12-31,34.0,30.7,26.8,32.7,28.6,24.4,95,92,88,28.70,28.59,13,2,13,0.00
2015-1-1,38.7,35.5,34.0,36.5,33.9,32.4,95,94,91,28.79,28.64,22,8,25,0.00
2015-1-2,36.9,35.4,33.4,34.0,32.3,29.7,93,88,80,28.64,28.41,31,14,33,0.00